[[{"header":{"parameterUnit":"m.s-1","parameterCategory":1,"la1":30.2991,"la2":30.254,"lo1":-89.0895,"lo2":-89.0444,"dy":0.0017,"dx":0.0017,"nx":28,"ny":28,"refTime":"2023-03-22T21:00:00:Z","depth":0,"parameterNumber":2,"parameterNumberName":"U-component_of_WINDS"},"data":[0,0,0,0,0,0,0,0,0,0,0,0,0,0,0,0,0,0,0,0,0,0,0,0,0,0,0,0,0,0,0,0,0,0,0,0,0,0,0,0,0,0,0,0,0,0,0,0,0,0,0,0,0,0,0,0,0,0,-0.9338,-0.9337,0,-0.9309,-0.9309,-0.9309,-0.9288,-0.9287,-0.9287,-0.9287,-0.9257,-0.9257,-0.9256,0,0,0,0,0,0,0,0,0,0,0,0,0,-0.9373,-0.9372,-0.9338,-0.9337,-0.9337,-0.9309,-0.9309,-0.9309,-0.9288,-0.9287,-0.9287,-0.9287,-0.9258,-0.9257,-0.9256,0,0,0,0,0,0,0,0,0,0,0,0,0,-0.9352,-0.9372,-0.9338,-0.9323,-0.9322,-0.9309,-0.9309,-0.9309,-0.9288,-0.9287,-0.9287,-0.9287,-0.9258,-0.9257,-0.9256,-0.9256,0,0,-0.9253,-0.9253,0,0,0,0,0,0,0,0,-0.9354,-0.9351,-0.9326,-0.9324,-0.9322,-0.9302,-0.931,-0.9291,-0.9288,-0.9301,-0.9287,-0.9287,-0.9272,-0.927,-0.9265,-0.9254,-0.9253,-0.9253,-0.9253,-0.9252,-0.9252,0,0,0,0,0,0,0,-0.9355,-0.9352,-0.9326,-0.9325,-0.9323,-0.9318,-0.9315,-0.9307,-0.9288,-0.9299,-0.9298,-0.9295,-0.9271,-0.9266,-0.9265,-0.9253,-0.9253,-0.9252,-0.9252,-0.9251,-0.9239,-0.9239,0,0,0,0,0,0,-0.9359,-0.9354,-0.9327,-0.9326,-0.9338,-0.9317,-0.9314,-0.9309,-0.9288,-0.9285,-0.9295,-0.9294,-0.9268,-0.9266,-0.9263,-0.9261,-0.9252,-0.9251,-0.9251,-0.9239,-0.9239,-0.9239,0,0,0,0,0,0,-0.936,-0.9357,-0.9329,-0.9339,-0.9335,-0.9317,-0.9311,-0.9308,-0.9303,-0.9285,-0.9282,-0.9293,-0.9268,-0.9265,-0.9258,-0.926,-0.9251,-0.925,-0.9238,-0.9239,-0.9239,-0.9257,0,0,0,0,0,0,-0.9361,-0.9357,-0.9357,-0.9339,-0.9335,-0.9324,-0.9312,-0.9308,-0.9302,-0.93,-0.9283,-0.9279,-0.9267,-0.9259,-0.9257,-0.9258,-0.9249,-0.9238,-0.9239,-0.9239,-0.9256,-0.9258,-0.9259,0,0,0,0,0,-0.9362,-0.9363,-0.9357,-0.9354,-0.9334,-0.9324,-0.9321,-0.9307,-0.9302,-0.9302,-0.929,-0.928,-0.926,-0.9259,-0.9256,-0.9257,-0.9238,-0.9238,-0.9239,-0.9255,-0.9257,-0.9259,0,0,0,0,0,0,-0.9382,-0.9361,-0.9354,-0.9349,-0.9338,-0.932,-0.9319,-0.931,-0.93,-0.9299,-0.9282,-0.9279,-0.9273,-0.9264,-0.9263,-0.9255,-0.9248,-0.9248,-0.9261,-0.9263,-0.9264,-0.9266,-0.9249,0,0,0,0,0,-0.9386,-0.9379,-0.9361,-0.9359,-0.9354,-0.9337,-0.9332,-0.9323,-0.9311,-0.9306,-0.9294,-0.9282,-0.9273,-0.9268,-0.9259,-0.9255,-0.925,-0.9254,-0.9256,-0.9257,-0.9257,-0.9254,-0.9255,-0.9241,-0.9241,-0.9241,0,0,-0.9393,-0.9381,-0.9378,-0.9362,-0.9353,-0.9346,-0.9334,-0.9327,-0.9322,-0.9305,-0.9297,-0.9288,-0.9274,-0.9268,-0.9265,-0.9261,-0.926,-0.9258,-0.9259,-0.9258,-0.9254,-0.9256,-0.9257,-0.9241,-0.9241,-0.9241,0,0,-0.9404,-0.9394,-0.9391,-0.9381,-0.9367,-0.9356,-0.9356,-0.9339,-0.9332,-0.9324,-0.9311,-0.9304,-0.9289,-0.928,-0.9273,-0.9279,-0.9269,-0.9277,-0.9285,-0.9282,-0.9283,-0.9284,-0.9285,-0.9286,-0.9277,-0.9277,-0.9277,0,-0.9415,-0.9404,-0.939,-0.9384,-0.9377,-0.9362,-0.9358,-0.935,-0.9333,-0.9329,-0.9324,-0.9305,-0.9294,-0.9286,-0.9287,-0.9283,-0.9281,-0.9278,-0.9284,-0.9284,-0.9285,-0.9286,-0.9287,-0.9278,-0.9278,-0.9278,-0.9277,0,-0.9419,-0.9411,-0.941,-0.9395,-0.9388,-0.9383,-0.9367,-0.9362,-0.9353,-0.9343,-0.9334,-0.9321,-0.9309,-0.9306,-0.9298,-0.9296,-0.9294,-0.9287,-0.9279,-0.9288,-0.9288,-0.9289,-0.9279,-0.9279,-0.9278,-0.9278,0,0,-0.944,-0.9417,-0.9416,-0.9409,-0.9392,-0.9386,-0.938,-0.9368,-0.9363,-0.9352,-0.9346,-0.9334,-0.9327,-0.932,-0.931,-0.9307,-0.9312,-0.93,-0.9299,-0.9302,-0.9308,-0.9313,-0.9314,-0.9305,-0.9305,-0.9305,-0.9309,0,-0.9447,-0.9436,-0.9423,-0.9416,-0.9409,-0.9394,-0.9389,-0.9378,-0.9368,-0.936,-0.9349,-0.934,-0.9332,-0.9327,-0.9324,-0.9312,-0.9313,-0.9311,-0.9299,-0.9299,-0.9302,-0.9315,-0.932,-0.9324,-0.931,-0.931,-0.931,0,-0.9454,-0.9443,-0.9436,-0.9419,-0.9415,-0.9411,-0.9398,-0.9391,-0.9378,-0.9371,-0.9362,-0.9352,-0.9344,-0.9338,-0.9327,-0.9326,-0.932,-0.9314,-0.9314,-0.9311,-0.9304,-0.9312,-0.9325,-0.9325,-0.931,-0.931,-0.931,0,-0.9469,-0.9453,-0.9447,-0.9441,-0.9421,-0.9418,-0.941,-0.9396,-0.939,-0.9379,-0.9374,-0.9363,-0.9356,-0.9347,-0.9333,-0.933,-0.9324,-0.9316,-0.9317,-0.9317,-0.9316,-0.9316,-0.9328,-0.9314,-0.9314,-0.9313,-0.9313,0,-0.9478,-0.9473,-0.9453,-0.9449,-0.9443,-0.9428,-0.9423,-0.9414,-0.9402,-0.9395,-0.9382,-0.9376,-0.9358,-0.935,-0.9339,-0.9331,-0.9329,-0.9322,-0.9319,-0.9323,-0.9324,-0.9318,-0.9317,-0.9314,-0.9314,-0.9314,-0.9314,0,-0.9494,-0.948,-0.9471,-0.9453,-0.9449,-0.9446,-0.943,-0.9425,-0.9415,-0.9406,-0.9403,-0.9386,-0.9376,-0.9361,-0.9346,-0.9339,-0.9332,-0.9328,-0.9337,-0.9335,-0.9336,-0.9336,-0.9344,-0.9344,-0.9331,-0.9331,-0.9331,0,-0.95,-0.9496,-0.9478,-0.9472,-0.9464,-0.9456,-0.9449,-0.9434,-0.9427,-0.9412,-0.9408,-0.9397,-0.9387,-0.9371,-0.9357,-0.9345,-0.934,-0.9344,-0.9338,-0.9342,-0.9339,-0.9339,-0.9338,-0.9345,-0.9345,-0.9345,-0.9346,0,-0.9511,-0.9505,-0.9495,-0.9484,-0.9476,-0.9466,-0.9455,-0.9451,-0.9434,-0.9427,-0.9416,-0.9409,-0.9393,-0.9382,-0.9368,-0.9359,-0.9349,-0.9348,-0.9347,-0.935,-0.9355,-0.9352,-0.934,-0.9347,-0.9347,-0.9347,-0.9347,-0.9347,-0.9522,-0.9517,-0.9504,-0.9494,-0.9484,-0.9474,-0.9469,-0.9457,-0.9448,-0.9434,-0.9426,-0.9416,-0.9402,-0.9383,-0.9374,-0.9365,-0.9361,-0.9361,-0.936,-0.936,-0.9361,-0.9357,-0.9363,-0.9363,-0.9363,-0.9363,-0.9363,0,-0.9532,-0.9522,-0.9513,-0.9499,-0.9491,-0.9483,-0.947,-0.9464,-0.9455,-0.9443,-0.9434,-0.9421,-0.9409,-0.9395,-0.9382,-0.9378,-0.9373,-0.9375,-0.9375,-0.9373,-0.9366,-0.9367,-0.9379,-0.9379,-0.9379,-0.9379,-0.9379,-0.9379,-0.9536,-0.9528,-0.952,-0.9507,-0.9498,-0.9487,-0.9481,-0.9472,-0.9462,-0.9448,-0.9439,-0.943,-0.9417,-0.9403,-0.9392,-0.9388,-0.9384,-0.9387,-0.9382,-0.9375,-0.9374,-0.9372,-0.9373,-0.9386,-0.9387,-0.9389,-0.9389,-0.9389]},{"header":{"parameterUnit":"m.s-1","parameterCategory":1,"la1":30.2991,"la2":30.254,"lo1":-89.0895,"lo2":-89.0444,"dy":0.0017,"dx":0.0017,"nx":28,"ny":28,"refTime":"2023-03-22T21:00:00:Z","depth":0,"parameterNumber":3,"parameterNumberName":"V-component_of_WINDS"},"data":[0,0,0,0,0,0,0,0,0,0,0,0,0,0,0,0,0,0,0,0,0,0,0,0,0,0,0,0,0,0,0,0,0,0,0,0,0,0,0,0,0,0,0,0,0,0,0,0,0,0,0,0,0,0,0,0,0,0,2.9154,2.9154,0,2.9158,2.9158,2.9158,2.9162,2.9162,2.9162,2.9162,2.9164,2.9164,2.9164,0,0,0,0,0,0,0,0,0,0,0,0,0,2.9152,2.9152,2.9154,2.9154,2.9154,2.9158,2.9158,2.9158,2.9162,2.9162,2.9162,2.9162,2.9164,2.9164,2.9164,0,0,0,0,0,0,0,0,0,0,0,0,0,2.9154,2.9152,2.9154,2.9157,2.9157,2.9158,2.9158,2.9158,2.9162,2.9162,2.9162,2.9162,2.9164,2.9164,2.9164,2.9163,0,0,2.9164,2.9164,0,0,0,0,0,0,0,0,2.9154,2.9154,2.9156,2.9156,2.9157,2.9159,2.9158,2.916,2.9162,2.916,2.9162,2.9162,2.9162,2.9163,2.9163,2.9163,2.9163,2.9164,2.9164,2.9164,2.9164,0,0,0,0,0,0,0,2.9154,2.9154,2.9156,2.9156,2.9157,2.9158,2.9158,2.9159,2.9161,2.916,2.916,2.9161,2.9163,2.9163,2.9163,2.9163,2.9164,2.9164,2.9164,2.9164,2.9168,2.9168,0,0,0,0,0,0,2.9153,2.9154,2.9156,2.9156,2.9155,2.9158,2.9158,2.9158,2.9161,2.9161,2.9161,2.9161,2.9163,2.9163,2.9163,2.9165,2.9164,2.9164,2.9164,2.9168,2.9168,2.9168,0,0,0,0,0,0,2.9153,2.9153,2.9155,2.9155,2.9155,2.9158,2.9158,2.9159,2.9159,2.9161,2.9162,2.9161,2.9163,2.9163,2.9164,2.9165,2.9164,2.9164,2.9168,2.9168,2.9168,2.9167,0,0,0,0,0,0,2.9153,2.9153,2.9152,2.9155,2.9155,2.9156,2.9158,2.9159,2.9159,2.916,2.9161,2.9162,2.9163,2.9164,2.9164,2.9165,2.9165,2.9168,2.9168,2.9168,2.9167,2.9167,2.9167,0,0,0,0,0,2.9153,2.915,2.9152,2.9152,2.9154,2.9156,2.9156,2.9158,2.9159,2.9159,2.9161,2.9162,2.9165,2.9164,2.9164,2.9165,2.9167,2.9168,2.9168,2.9167,2.9167,2.9167,0,0,0,0,0,0,2.9146,2.9151,2.9152,2.915,2.9153,2.9156,2.9155,2.9158,2.9159,2.9159,2.9162,2.9162,2.9164,2.9164,2.9163,2.9167,2.9167,2.9167,2.9166,2.9166,2.9166,2.9166,2.9165,0,0,0,0,0,2.9144,2.9145,2.9149,2.9147,2.9149,2.9152,2.9153,2.9155,2.9157,2.9158,2.916,2.9162,2.9164,2.9165,2.9167,2.9168,2.917,2.9169,2.9169,2.9169,2.9169,2.9173,2.9174,2.9168,2.9168,2.9168,0,0,2.914,2.9143,2.9143,2.9146,2.9148,2.915,2.9153,2.9153,2.9156,2.9158,2.916,2.9162,2.9165,2.9167,2.9167,2.9167,2.9171,2.9169,2.9169,2.9169,2.9174,2.9174,2.9175,2.9168,2.9168,2.9168,0,0,2.9135,2.9136,2.9137,2.914,2.9144,2.9147,2.9147,2.9151,2.9153,2.9156,2.9159,2.9161,2.9164,2.9167,2.9169,2.917,2.9172,2.917,2.9171,2.9175,2.9176,2.9176,2.9179,2.918,2.9171,2.9171,2.9171,0,2.9129,2.9132,2.9136,2.9139,2.9141,2.9145,2.9147,2.915,2.9154,2.9156,2.9156,2.9163,2.9164,2.9169,2.917,2.917,2.9173,2.917,2.9175,2.9176,2.9176,2.9179,2.918,2.9171,2.9171,2.9171,2.9171,0,2.9127,2.913,2.913,2.9136,2.9138,2.914,2.9146,2.9148,2.9151,2.9155,2.9159,2.9162,2.9167,2.9168,2.9169,2.9174,2.9174,2.9175,2.9175,2.9177,2.918,2.9181,2.9171,2.9171,2.9171,2.9171,0,0,2.9114,2.9126,2.9126,2.9131,2.9138,2.914,2.9144,2.9149,2.9153,2.9156,2.9161,2.9165,2.9167,2.917,2.9172,2.9176,2.9181,2.9176,2.9177,2.9179,2.919,2.919,2.9191,2.9182,2.9182,2.9182,2.919,0,2.9111,2.9118,2.9124,2.9129,2.9133,2.914,2.9143,2.9149,2.9153,2.9158,2.9163,2.9167,2.9168,2.917,2.9174,2.9179,2.9183,2.9179,2.9188,2.9188,2.9188,2.9192,2.9192,2.9199,2.9191,2.9191,2.9191,0,2.9107,2.9114,2.912,2.9131,2.9133,2.9136,2.9144,2.9148,2.9155,2.9159,2.9164,2.9168,2.9174,2.9174,2.9184,2.9181,2.9185,2.9189,2.9189,2.9191,2.919,2.9196,2.9201,2.9202,2.9193,2.9193,2.9193,0,2.9101,2.911,2.9116,2.912,2.9132,2.9135,2.914,2.9147,2.9152,2.9159,2.9163,2.917,2.9174,2.9181,2.9187,2.9186,2.9198,2.9197,2.9202,2.9202,2.9204,2.9204,2.9212,2.9205,2.9205,2.9205,2.9205,0,2.9097,2.9101,2.9114,2.9118,2.9124,2.9132,2.9137,2.9143,2.9151,2.9157,2.9163,2.9168,2.9176,2.9184,2.9189,2.9198,2.9199,2.9204,2.9205,2.9204,2.9204,2.9207,2.9207,2.9205,2.9205,2.9205,2.9205,0,2.909,2.9098,2.9106,2.9118,2.9122,2.9126,2.9137,2.9142,2.9148,2.9156,2.9158,2.9168,2.9178,2.9186,2.9197,2.9201,2.9211,2.9212,2.9209,2.921,2.9215,2.9216,2.9226,2.923,2.9219,2.9219,2.9219,0,2.9087,2.9091,2.9105,2.911,2.9116,2.9124,2.913,2.9139,2.9145,2.9157,2.9161,2.9171,2.918,2.9195,2.9204,2.9214,2.9216,2.9219,2.9217,2.9217,2.9219,2.9219,2.9221,2.9219,2.9219,2.9219,2.9219,0,2.9082,2.9088,2.9096,2.9108,2.9115,2.9124,2.9133,2.9137,2.9148,2.9155,2.9166,2.9173,2.9187,2.9198,2.921,2.9216,2.9221,2.922,2.9222,2.9221,2.9221,2.9224,2.9211,2.922,2.922,2.922,2.922,2.922,2.9079,2.9084,2.9096,2.9107,2.9115,2.9125,2.9131,2.914,2.915,2.9163,2.9168,2.918,2.9191,2.9208,2.9215,2.9225,2.9226,2.9228,2.9229,2.9229,2.9231,2.9219,2.9227,2.9227,2.9227,2.9227,2.9227,0,2.9076,2.9086,2.9095,2.911,2.9119,2.9124,2.9136,2.9143,2.9154,2.9164,2.9174,2.9189,2.9201,2.9212,2.9225,2.9232,2.9234,2.9235,2.9235,2.9237,2.9228,2.9226,2.9233,2.9233,2.9233,2.9233,2.9233,2.9233,2.9076,2.9087,2.9095,2.9111,2.912,2.9133,2.914,2.915,2.9159,2.9175,2.9186,2.9194,2.9206,2.9221,2.9233,2.9236,2.9242,2.9242,2.9246,2.9238,2.9237,2.9236,2.9235,2.9243,2.9243,2.9254,2.9254,2.9254]}]]